Weather History for O'Neill, NE

Change the Weather History Date:

Wednesday, October 31, 2012

  Actual Average Record
Temperature  
Mean Temperature 50 °F -  
Max Temperature 70 °F 53 °F 73 °F (2000)
Min Temperature 30 °F 31 °F 12 °F (1991)
Degree Days  
Heating Degree Days 15    
Moisture  
Dew Point 36 °F    
Average Humidity 63    
Maximum Humidity 94    
Minimum Humidity 28    
Precipitation  
Precipitation 0.00 in - - ()
Sea Level Pressure  
Sea Level Pressure 29.99 in    
Wind  
Wind Speed 4 mph (South)    
Max Wind Speed 9 mph    
Max Gust Speed -    
Visibility 10 miles    
Events      
Averages and records for this station are not official NWS values.
T = Trace of Precipitation, MM = Missing Value Source: NWS Daily Summary

Daily Weather History Graph

Daily Weather History Graph

Search for Another Location

Airport:

Trip Planner

Search our weather history database for the weather conditions in past years. The results will help you decide how hot, cold, wet, or windy it might be!

Date:

Astronomy

Oct. 31, 2012 Rise Set
Actual Time 8:07 AM CDT 6:28 PM CDT
Civil Twilight 7:38 AM CDT 6:57 PM CDT
Nautical Twilight 7:05 AM CDT 7:30 PM CDT
Astronomical Twilight 6:32 AM CDT 8:03 PM CDT
Moon 7:38 PM CDT (10/31) 9:52 AM CDT (10/31)
Length of Visible Light 11h 19m
Length of Day
10h 20m
Full, 97% of the Moon is Illuminated
Oct 31
Full
Nov 6
Last Quarter
Nov 13
New
Nov 20
First Quarter
Nov 28
Full

Hourly Weather History & Observations

Time (CDT) Temp. Windchill Dew Point Humidity Pressure Visibility Wind Dir Wind Speed Gust Speed Precip Events Conditions
12:15 AM 42.1 °F 37.7 °F 32.2 °F 68% 30.02 in 10.0 mi SSE 6.9 mph - N/A   Scattered Clouds
12:35 AM 41.9 °F 36.3 °F 32.2 °F 68% 30.01 in 10.0 mi SSE 9.2 mph - N/A   Mostly Cloudy
12:55 AM 40.6 °F 36.0 °F 32.0 °F 71% 30.01 in 10.0 mi SSE 6.9 mph - N/A   Scattered Clouds
1:15 AM 39.9 °F 34.5 °F 32.0 °F 73% 30.01 in 10.0 mi SSE 8.1 mph - N/A   Clear
1:35 AM 39.2 °F 33.6 °F 32.0 °F 75% 30.01 in 10.0 mi SSE 8.1 mph - N/A   Scattered Clouds
1:55 AM 38.7 °F 33.6 °F 32.0 °F 77% 30.01 in 10.0 mi SSE 6.9 mph - N/A   Scattered Clouds
2:15 AM 38.1 °F 33.7 °F 32.0 °F 79% 30.01 in 10.0 mi South 5.8 mph - N/A   Mostly Cloudy
2:35 AM 37.2 °F 32.6 °F 32.0 °F 81% 30.02 in 10.0 mi South 5.8 mph - N/A   Mostly Cloudy
2:55 AM 38.3 °F 35.9 °F 32.0 °F 78% 30.02 in 10.0 mi SSE 3.5 mph - N/A   Overcast
3:15 AM 37.6 °F 35.1 °F 31.8 °F 80% 30.02 in 10.0 mi South 3.5 mph - N/A   Mostly Cloudy
3:35 AM 38.3 °F - 32.0 °F 78% 30.02 in 10.0 mi Calm Calm - N/A   Overcast
3:55 AM 38.1 °F 34.6 °F 32.0 °F 79% 30.00 in 10.0 mi SE 4.6 mph - N/A   Mostly Cloudy
4:15 AM 35.6 °F 31.7 °F 32.0 °F 87% 30.00 in 10.0 mi South 4.6 mph - N/A   Scattered Clouds
4:35 AM 35.2 °F 30.3 °F 31.5 °F 86% 29.99 in 10.0 mi SSE 5.8 mph - N/A   Clear
4:55 AM 35.4 °F - 31.6 °F 86% 30.00 in 10.0 mi Calm Calm - N/A   Clear
5:15 AM 35.6 °F - 31.6 °F 85% 30.00 in 10.0 mi Calm Calm - N/A   Clear
5:35 AM 35.1 °F - 31.6 °F 87% 30.00 in 10.0 mi Calm Calm - N/A   Clear
5:55 AM 34.3 °F - 31.1 °F 88% 30.00 in 10.0 mi Calm Calm - N/A   Clear
6:15 AM 34.3 °F - 31.1 °F 88% 30.00 in 10.0 mi Calm Calm - N/A   Clear
6:35 AM 34.7 °F - 31.3 °F 87% 30.00 in 10.0 mi Calm Calm - N/A   Clear
6:55 AM 34.5 °F - 31.5 °F 89% 30.00 in 10.0 mi Calm Calm - N/A   Clear
7:15 AM 32.7 °F - 30.2 °F 90% 30.00 in 10.0 mi Calm Calm - N/A   Clear
7:35 AM 32.0 °F - 30.0 °F 92% 30.00 in 10.0 mi Calm Calm - N/A   Clear
7:55 AM 31.6 °F - 29.8 °F 93% 30.00 in 10.0 mi Calm Calm - N/A   Clear
8:15 AM 30.6 °F - 29.1 °F 94% 30.01 in 7.0 mi Calm Calm - N/A   Clear
8:35 AM 31.6 °F - 29.8 °F 93% 30.01 in 10.0 mi Calm Calm - N/A   Clear
8:55 AM 33.6 °F 30.6 °F 31.8 °F 93% 30.02 in 10.0 mi WSW 3.5 mph - N/A   Clear
9:15 AM 38.1 °F - 34.3 °F 86% 30.02 in 10.0 mi Calm Calm - N/A   Clear
9:35 AM 40.1 °F 38.0 °F 34.9 °F 82% 30.03 in 10.0 mi WSW 3.5 mph - N/A   Clear
9:55 AM 44.8 °F - 38.8 °F 80% 30.03 in 10.0 mi Calm Calm - N/A   Clear
10:15 AM 49.6 °F - 41.0 °F 72% 30.03 in 10.0 mi NW 3.5 mph - N/A   Clear
10:35 AM 51.8 °F - 41.5 °F 68% 30.03 in 10.0 mi WNW 3.5 mph - N/A   Clear
10:55 AM 53.8 °F - 41.7 °F 64% 30.02 in 10.0 mi Calm Calm - N/A   Clear
11:15 AM 55.6 °F - 41.7 °F 60% 30.03 in 10.0 mi Calm Calm - N/A   Clear
11:35 AM 56.8 °F - 42.1 °F 58% 30.03 in 10.0 mi Calm Calm - N/A   Clear
11:55 AM 58.6 °F - 42.1 °F 54% 30.02 in 10.0 mi Calm Calm - N/A   Clear
12:15 PM 61.0 °F - 42.3 °F 50% 30.02 in 10.0 mi Calm Calm - N/A   Clear
12:35 PM 62.4 °F - 42.1 °F 47% 30.01 in 10.0 mi Calm Calm - N/A   Clear
12:55 PM 64.2 °F - 42.1 °F 44% 30.00 in 10.0 mi Calm Calm - N/A   Clear
1:15 PM 64.9 °F - 41.9 °F 43% 30.00 in 10.0 mi Calm Calm - N/A   Clear
1:35 PM 66.4 °F - 41.9 °F 41% 30.00 in 10.0 mi West 3.5 mph - N/A   Clear
1:55 PM 67.8 °F - 41.2 °F 38% 29.99 in 10.0 mi West 4.6 mph - N/A   Clear
2:15 PM 68.5 °F - 39.2 °F 34% 29.97 in 10.0 mi West 3.5 mph - N/A   Clear
2:35 PM 69.6 °F - 37.4 °F 31% 29.97 in 10.0 mi NNW 4.6 mph - N/A   Clear
2:55 PM 69.8 °F - 36.1 °F 29% 29.97 in 10.0 mi NNW 4.6 mph - N/A   Clear
3:15 PM 69.8 °F - 35.8 °F 29% 29.96 in 10.0 mi NNW 8.1 mph - N/A   Clear
3:35 PM 70.5 °F - 35.8 °F 28% 29.97 in 10.0 mi NNW 5.8 mph - N/A   Clear
3:55 PM 69.8 °F - 35.6 °F 28% 29.97 in 10.0 mi NNW 5.8 mph - N/A   Clear
4:15 PM 70.2 °F - 35.8 °F 28% 29.97 in 10.0 mi WNW 6.9 mph - N/A   Clear
4:35 PM 69.4 °F - 36.9 °F 30% 29.97 in 10.0 mi NW 5.8 mph - N/A   Clear
4:55 PM 68.0 °F - 36.7 °F 32% 29.97 in 10.0 mi NNW 5.8 mph - N/A   Clear
5:15 PM 67.6 °F - 37.4 °F 33% 29.97 in 10.0 mi NNW 3.5 mph - N/A   Clear
5:35 PM 66.4 °F - 37.6 °F 35% 29.97 in 10.0 mi North 3.5 mph - N/A   Clear
5:55 PM 65.5 °F - 37.4 °F 35% 29.97 in 10.0 mi Calm Calm - N/A   Clear
6:15 PM 63.5 °F - 39.4 °F 41% 29.97 in 10.0 mi NE 3.5 mph - N/A   Clear
6:35 PM 62.1 °F - 39.7 °F 44% 29.97 in 10.0 mi East 4.6 mph - N/A   Clear
6:55 PM 60.8 °F - 41.0 °F 48% 29.97 in 4.0 mi East 5.8 mph - N/A   Haze
7:15 PM 59.7 °F - 40.3 °F 49% 29.97 in 7.0 mi ESE 4.6 mph - N/A   Scattered Clouds
7:35 PM 58.5 °F - 39.7 °F 50% 29.97 in 5.0 mi ESE 4.6 mph - N/A   Haze
7:55 PM 57.4 °F - 39.6 °F 51% 29.97 in 10.0 mi SE 4.6 mph - N/A   Clear
8:15 PM 57.9 °F - 39.6 °F 50% 29.97 in 10.0 mi SE 5.8 mph - N/A   Scattered Clouds
8:35 PM 56.3 °F - 39.6 °F 53% 29.97 in 10.0 mi SE 4.6 mph - N/A   Mostly Cloudy
8:55 PM 54.5 °F - 39.6 °F 57% 29.97 in 10.0 mi SE 4.6 mph - N/A   Scattered Clouds
9:15 PM 54.9 °F - 39.7 °F 57% 29.97 in 10.0 mi SE 6.9 mph - N/A   Mostly Cloudy
9:35 PM 54.1 °F - 39.6 °F 58% 29.97 in 10.0 mi SSE 6.9 mph - N/A   Scattered Clouds
9:55 PM 51.6 °F - 39.2 °F 63% 29.97 in 10.0 mi SSE 6.9 mph - N/A   Scattered Clouds
10:15 PM 51.1 °F - 39.2 °F 64% 29.97 in 10.0 mi South 5.8 mph - N/A   Scattered Clouds
10:35 PM 50.7 °F - 38.5 °F 63% 29.97 in 10.0 mi South 4.6 mph - N/A   Clear
10:55 PM 49.5 °F - 38.3 °F 65% 29.98 in 10.0 mi South 3.5 mph - N/A   Clear
11:15 PM 47.8 °F - 38.3 °F 70% 29.98 in 10.0 mi SW 4.6 mph - N/A   Clear
11:35 PM 46.4 °F 42.4 °F 37.9 °F 72% 29.98 in 10.0 mi SW 8.1 mph - N/A   Clear
11:55 PM 45.1 °F 40.8 °F 37.8 °F 75% 29.97 in 10.0 mi SW 8.1 mph - N/A   Clear